Augusta Bush, GA

1:30 PM EDT on October 19, 2017 (GMT -0400)
Augusta Regional At Bush

Weather History for KAGS - December, 2013

Change the Weather History Date:

Saturday, December 21, 2013

  Actual Average Record
Temperature  
Mean Temperature 64 °F 46 °F  
Max Temperature 83 °F 59 °F 83 °F (2013)
Min Temperature 44 °F 34 °F 5 °F (1981)
Degree Days  
Heating Degree Days 1 19  
Month to date heating degree days 290 358  
Since 1 July heating degree days 749 780  
Cooling Degree Days 0 0  
Month to date cooling degree days 4 0  
Year to date cooling degree days 1869 2086  
Growing Degree Days 13 (Base 50)    
Moisture  
Dew Point 51 °F    
Average Humidity 74    
Maximum Humidity 100    
Minimum Humidity 48    
Precipitation  
Precipitation 0.00 in 0.12 in 1.75 in (1947)
Month to date precipitation 3.11 2.25  
Year to date precipitation 51.73 42.43  
Sea Level Pressure  
Sea Level Pressure 30.11 in    
Wind  
Wind Speed 6 mph (South)    
Max Wind Speed 21 mph    
Max Gust Speed 26 mph    
Visibility 6 miles    
Events Fog    
T = Trace of Precipitation, MM = Missing Value Source: NWS Daily Summary

Daily Weather History Graph

Daily Weather History Graph

Search for Another Location

Airport or City:

Trip Planner

Search our weather history database for the weather conditions in past years. The results will help you decide how hot, cold, wet, or windy it might be!

Date:

Astronomy

Dec. 21, 2013 Rise Set
Actual Time 7:27 AM EST 5:24 PM EST
Civil Twilight 7:00 AM EST 5:51 PM EST
Nautical Twilight 6:29 AM EST 6:23 PM EST
Astronomical Twilight 5:58 AM EST 6:53 PM EST
Moon 9:28 PM EST (12/21) 10:03 AM EST (12/21)
Length of Visible Light 10h 51m
Length of Day
9h 56m
Waning Gibbous, 84% of the Moon is Illuminated
Dec 21
Waning Gibbous
Dec 25
Last Quarter
Jan 1
New
Jan 7
First Quarter
Jan 15
Full

Hourly Weather History & Observations

Time (EST) Temp. Heat Index Dew Point Humidity Pressure Visibility Wind Dir Wind Speed Gust Speed Precip Events Conditions
12:03 AM 46.4 °F - 46.4 °F 100% 30.17 in 2.0 mi Calm Calm - N/A   Mostly Cloudy
12:10 AM 46.4 °F - 46.4 °F 100% 30.17 in 7.0 mi Calm Calm - N/A   Scattered Clouds
12:46 AM 46.4 °F - 44.6 °F 93% 30.16 in 1.8 mi Calm Calm - N/A   Clear
12:53 AM 46.0 °F - 46.0 °F 100% 30.16 in 0.5 mi Calm Calm - N/A Fog Fog
1:01 AM 46.4 °F - 46.4 °F 100% 30.15 in 2.5 mi Calm Calm - N/A   Partly Cloudy
1:08 AM 44.6 °F - 44.6 °F 100% 30.15 in 3.0 mi Calm Calm - N/A   Partly Cloudy
1:35 AM 46.4 °F - 46.4 °F 100% 30.15 in 2.5 mi Calm Calm - N/A   Clear
1:53 AM 46.0 °F - 46.0 °F 100% 30.15 in 1.0 mi Calm Calm - N/A   Clear
2:01 AM 44.6 °F - 44.6 °F 100% 30.15 in 0.8 mi Calm Calm - N/A   Mist
2:14 AM 46.4 °F - 44.6 °F 93% 30.15 in 0.2 mi Calm Calm - N/A Fog Fog
2:17 AM 46.4 °F - 44.6 °F 93% 30.15 in 0.5 mi Calm Calm - N/A Fog Fog
2:27 AM 46.4 °F - 44.6 °F 93% 30.15 in 0.5 mi Calm Calm - N/A Fog Fog
2:33 AM 46.4 °F - 44.6 °F 93% 30.15 in 1.2 mi Calm Calm - N/A   Scattered Clouds
2:36 AM 46.4 °F - 44.6 °F 93% 30.15 in 4.0 mi Calm Calm - N/A   Scattered Clouds
2:49 AM 44.6 °F - 44.6 °F 100% 30.14 in 2.5 mi Calm Calm - N/A   Mostly Cloudy
2:50 AM 44.6 °F - 44.6 °F 100% 30.14 in 1.8 mi Calm Calm - N/A   Mostly Cloudy
2:53 AM 44.1 °F - 44.1 °F 100% 30.14 in 0.8 mi Calm Calm - N/A   Mostly Cloudy
3:23 AM 46.4 °F - 46.4 °F 100% 30.14 in 1.2 mi Calm Calm - N/A   Overcast
3:37 AM 46.4 °F - 46.4 °F 100% 30.14 in 4.0 mi Calm Calm - N/A   Mostly Cloudy
3:44 AM 46.4 °F - 46.4 °F 100% 30.14 in 6.0 mi Calm Calm - N/A   Mostly Cloudy
3:53 AM 46.0 °F - 45.0 °F 96% 30.14 in 7.0 mi Calm Calm - N/A   Mostly Cloudy
4:31 AM 46.4 °F - 46.4 °F 100% 30.13 in 5.0 mi Calm Calm - N/A   Overcast
4:53 AM 46.9 °F - 46.0 °F 97% 30.13 in 4.0 mi Calm Calm - N/A   Mostly Cloudy
5:39 AM 46.4 °F - 46.4 °F 100% 30.12 in 2.5 mi Calm Calm - N/A   Mostly Cloudy
5:49 AM 48.2 °F - 46.4 °F 93% 30.13 in 4.0 mi Calm Calm - N/A   Mostly Cloudy
5:53 AM 48.0 °F - 46.0 °F 93% 30.13 in 4.0 mi Calm Calm - N/A   Overcast
6:53 AM 48.9 °F - 48.0 °F 97% 30.13 in 8.0 mi Calm Calm - N/A   Overcast
7:53 AM 50.0 °F - 50.0 °F 100% 30.13 in 5.0 mi Calm Calm - N/A   Overcast
8:53 AM 54.0 °F - 53.1 °F 97% 30.12 in 8.0 mi Calm Calm - N/A   Scattered Clouds
9:53 AM 60.1 °F - 55.9 °F 86% 30.13 in 10.0 mi Calm Calm - N/A   Clear
10:53 AM 73.0 °F - 59.0 °F 61% 30.12 in 10.0 mi SSW 8.1 mph - N/A   Mostly Cloudy
11:53 AM 75.9 °F - 57.9 °F 54% 30.09 in 10.0 mi South 10.4 mph - N/A   Mostly Cloudy
12:53 PM 79.0 °F - 57.9 °F 48% 30.04 in 10.0 mi South 12.7 mph - N/A   Clear
1:53 PM 81.0 °F 81.3 °F 59.0 °F 47% 30.01 in 10.0 mi South 16.1 mph 24.2 mph N/A   Partly Cloudy
2:53 PM 80.1 °F 80.9 °F 60.1 °F 50% 30.01 in 10.0 mi South 13.8 mph 21.9 mph N/A   Mostly Cloudy
3:53 PM 79.0 °F - 60.1 °F 52% 30.01 in 10.0 mi South 11.5 mph - N/A   Mostly Cloudy
4:53 PM 78.1 °F - 60.1 °F 54% 30.01 in 10.0 mi SSE 9.2 mph - N/A   Overcast
5:53 PM 75.9 °F - 60.1 °F 58% 30.03 in 10.0 mi SSE 8.1 mph - N/A   Overcast
6:53 PM 73.9 °F - 60.1 °F 62% 30.04 in 10.0 mi SSE 6.9 mph - N/A   Overcast
7:53 PM 72.0 °F - 61.0 °F 68% 30.04 in 10.0 mi SSE 8.1 mph - N/A   Overcast
8:53 PM 70.0 °F - 61.0 °F 73% 30.04 in 10.0 mi SSE 8.1 mph - N/A   Overcast
9:53 PM 69.1 °F - 62.1 °F 78% 30.04 in 10.0 mi SSE 10.4 mph - N/A   Scattered Clouds
10:53 PM 68.0 °F - 63.0 °F 84% 30.06 in 10.0 mi South 5.8 mph - N/A   Mostly Cloudy
11:53 PM 64.9 °F - 63.0 °F 93% 30.05 in 10.0 mi SSE 5.8 mph - N/A   Clear